469  
AXUS43 KGID 210702  
MISGRI  
 
GID CWA HOURLY WEATHER ROUNDUP  
NATIONAL WEATHER SERVICE HASTINGS NE  
100 AM CST TUE FEB 21 2017  
 
NOTE: "FAIR" INDICATES FEW OR NO CLOUDS BELOW 12,000 FEET WITH NO  
SIGNIFICANT WEATHER AND/OR OBSTRUCTIONS TO VISIBILITY.  
   
..SOUTH CENTRAL NEBRASKA
 
 
 
CITY SKY/WX TMP DP RH WIND PRES REMARKS  
GRAND ISLAND CLEAR 38 34 85 S8 29.95F WCI 32  
HASTINGS CLEAR 39 31 72 S6 29.97S WCI 35  
KEARNEY CLEAR 43 28 56 SW10 29.97S  
ORD CLEAR 30 26 85 CALM 29.94R  
YORK CLEAR 36 36 100 W7 29.97R WCI 30  
AURORA CLEAR 39 35 83 SW7 29.96F WCI 34  
LEXINGTON CLOUDY 29 25 86 CALM 29.97S  
HOLDREGE CLEAR 40 29 64 SW6 29.98R  
HEBRON CLEAR 33 32 95 CALM 29.99R  
   
..NEBRASKA PANHANDLE
 
 
 
CITY SKY/WX TMP DP RH WIND PRES REMARKS  
CHADRON CLEAR 51 26 37 SW16 29.86F  
ALLIANCE CLOUDY 36 26 67 SW6 29.93S WCI 31  
SCOTTSBLUFF CLEAR 40 20 44 SE3 29.93F  
SIDNEY CLEAR 35 19 52 SW9 29.97S WCI 28  
   
..WESTERN AND NORTH CENTRAL NEBRASKA
 
 
 
CITY SKY/WX TMP DP RH WIND PRES REMARKS  
VALENTINE CLOUDY 39 25 57 SW12 29.87S WCI 32  
AINSWORTH CLOUDY 43 28 56 S12 29.90S  
ONEILL CLEAR 36 30 80 S6 29.92R WCI 31  
BROKEN BOW CLEAR 31 26 82 CALM 29.95S  
IMPERIAL CLOUDY 39 17 41 SW9 29.99S WCI 33  
NORTH PLATTE CLOUDY 30 22 72 CALM 29.96S  
MCCOOK CLOUDY 33 23 66 W10 29.98S WCI 25  
   
..EASTERN NEBRASKA
 
 
 
CITY SKY/WX TMP DP RH WIND PRES REMARKS  
NORFOLK CLEAR 33 30 88 CALM 29.93S  
SO SIOUX CITY FOG 32 32 100 S3 29.95R VSB 1/2  
TEKAMAH CLEAR 35 32 88 SW5 29.97R WCI 31  
COLUMBUS N/A 32 28 86 CALM 29.96F VSB 3/4  
ALBION CLEAR 33 30 90 CALM 29.95R  
OMAHA EPPLEY CLEAR 37 33 85 CALM 29.96R  
MILLARD CLEAR 41 39 95 CALM 29.97R  
LINCOLN CLEAR 31 29 92 N5 29.98R WCI 26  
NEBRASKA CITY CLEAR 46 38 76 N8 29.96R  
BEATRICE CLEAR 35 35 98 CALM 29.97R  
FALLS CITY CLEAR 46 42 86 NW3 29.94R  
   
..NORTHERN KANSAS
 
 
 
CITY SKY/WX TMP DP RH WIND PRES REMARKS  
GOODLAND CLOUDY 45 14 28 SW12 30.01S  
HILL CITY CLOUDY 31 25 78 SW3 30.00S  
NORTON SUNNY 34 21 60 SW7 29.98S WCI 28  
SMITH CENTER CLEAR 28 25 86 W5 30.00S WCI 23  
HAYS CLEAR 31 27 85 NW3 30.01S  
RUSSELL CLEAR 37 32 82 CALM 29.99S  
CONCORDIA CLEAR 46 38 73 NW3 29.98S  
SALINA CLEAR 44 37 76 NW3 29.98R  
TOPEKA MOCLDY 51 45 79 W3 29.93S  
 
CLICK HERE TO GO TO PREVIOUS BULLETINS.

The Nexlab NE Page
The Nexlab KS Page Main Text Page